Date String (YYYY-MM-DD hh:mm:ss) UTC,Instrument flags,Ambient pressure (hPa),Sample flow (lpm),Bypass flow (lpm),Sample temperature (°C),Ambient temperature (°C),ASC tube jacket temperature (°C),LED temperature (°C),Box temperature (°C),Sample RH (%),Span deviation,Mass concentration (μg/m³),Mass concentration (μg/m³),Mass concentration (μg/m³)
DateTimeUTC,F1_M11,P_M11,Q1_M11,Q2_M11,T1_M11,T2_M11,T3_M11,T4_M11,T5_M11,U1_M11,ZSPAN_M11,X0_M11,X2_M11,X1_M11
2022-01-29 01:00:00,,0832.1,4.99,0.00,26.3,25.5,00.0,35.3,28.0,05.9,0000.0,0007.02,0002.51,0001.98
2022-01-29 01:01:00,,0832.1,5.00,0.00,26.3,25.5,00.0,35.3,28.0,05.9,0000.0,0008.09,0002.49,0001.96
2022-01-29 01:02:00,,0832.1,5.00,0.00,26.2,25.5,00.0,35.3,28.0,05.9,0000.0,0008.22,0002.48,0001.95
2022-01-29 01:03:00,,0832.1,5.00,0.00,26.2,25.5,00.0,35.3,28.0,05.9,0000.0,0008.23,0002.46,0001.93
2022-01-29 01:04:00,,0832.1,5.00,0.00,26.2,25.4,00.0,35.3,28.0,05.9,0000.0,0008.23,0002.41,0001.88
2022-01-29 01:05:00,,0832.1,5.00,0.00,26.2,25.4,00.0,35.3,27.9,06.0,0000.0,0008.13,0002.33,0001.84
2022-01-29 01:06:00,,0832.1,5.00,0.00,26.2,25.4,00.0,35.3,27.9,06.0,0000.0,0007.98,0002.23,0001.78
2022-01-29 01:07:00,,0832.1,5.00,0.00,26.2,25.4,00.0,35.2,27.9,06.0,0000.0,0006.51,0002.20,0001.76
2022-01-29 01:08:00,,0832.1,5.00,0.00,26.2,25.4,00.0,35.2,27.9,06.0,0000.0,0006.52,0002.22,0001.74
2022-01-29 01:09:00,,0832.1,5.00,0.00,26.2,25.4,00.0,35.2,27.9,06.0,0000.0,0007.78,0002.19,0001.72
2022-01-29 01:10:00,,0832.1,5.00,0.00,26.2,25.4,00.0,35.2,27.9,06.0,0000.0,0008.02,0002.21,0001.69
2022-01-29 01:11:00,,0832.1,5.01,0.00,26.1,25.4,00.0,35.2,27.9,06.0,0000.0,0007.83,0002.24,0001.69
2022-01-29 01:12:00,,0832.1,5.00,0.00,26.1,25.4,00.0,35.2,27.8,06.0,0000.0,0006.62,0002.29,0001.69
2022-01-29 01:13:00,,0832.1,4.99,0.00,26.1,25.4,00.0,35.2,27.8,06.0,0000.0,0006.64,0002.25,0001.66
2022-01-29 01:14:00,,0832.1,5.00,0.00,26.1,25.3,00.0,35.2,27.8,06.0,0000.0,0007.30,0002.21,0001.63
2022-01-29 01:15:00,,0832.1,5.00,0.00,26.1,25.3,00.0,35.1,27.8,06.0,0000.0,0007.21,0002.19,0001.61
2022-01-29 01:16:00,,0832.1,5.01,0.00,26.1,25.3,00.0,35.1,27.8,06.0,0000.0,0007.30,0002.16,0001.57
2022-01-29 01:17:00,,0832.1,5.00,0.00,26.0,25.2,00.0,35.1,27.8,06.0,0000.0,0007.77,0002.21,0001.55
2022-01-29 01:18:00,,0832.1,5.00,0.00,26.0,25.2,00.0,35.1,27.7,06.0,0000.0,0007.83,0002.22,0001.54
2022-01-29 01:19:00,,0832.1,5.00,0.00,26.0,25.2,00.0,35.1,27.7,06.0,0000.0,0007.67,0002.21,0001.54
2022-01-29 01:20:00,,0832.1,5.01,0.00,26.0,25.2,00.0,35.1,27.7,06.0,0000.0,0006.47,0002.20,0001.54
2022-01-29 01:21:00,,0832.1,5.00,0.00,26.0,25.2,00.0,35.0,27.7,06.0,0000.0,0006.09,0002.17,0001.52
2022-01-29 01:22:00,,0832.1,5.00,0.00,25.9,25.1,00.0,35.0,27.6,06.0,0000.0,0005.92,0002.14,0001.51
2022-01-29 01:23:00,,0832.1,5.00,0.00,25.9,25.1,00.0,35.0,27.6,06.0,0000.0,0005.73,0002.08,0001.49
2022-01-29 01:24:00,,0832.1,5.00,0.00,25.9,25.1,00.0,35.0,27.6,06.0,0000.0,0005.48,0002.12,0001.50
2022-01-29 01:25:00,,0832.1,5.00,0.00,25.8,25.1,00.0,35.0,27.6,06.1,0000.0,0004.85,0002.19,0001.55
2022-01-29 01:26:00,,0832.1,5.00,0.00,25.8,25.0,00.0,34.9,27.5,06.1,0000.0,0004.92,0002.25,0001.60
2022-01-29 01:27:00,,0832.1,5.00,0.00,25.8,25.0,00.0,34.9,27.5,06.0,0000.0,0005.38,0002.31,0001.64
2022-01-29 01:28:00,,0832.1,5.00,0.00,25.8,25.0,00.0,34.9,27.5,05.9,0000.0,0005.19,0002.26,0001.66
2022-01-29 01:29:00,,0832.1,5.00,0.00,25.8,24.9,00.0,34.9,27.5,05.9,0000.0,0005.07,0002.26,0001.67
2022-01-29 01:30:00,,0832.1,5.01,0.00,25.7,24.9,00.0,34.9,27.4,05.9,0000.0,0004.98,0002.23,0001.66
2022-01-29 01:31:00,,0832.1,5.00,0.00,25.7,24.9,00.0,34.9,27.4,06.0,0000.0,0004.85,0002.24,0001.66
2022-01-29 01:32:00,,0832.1,5.00,0.00,25.7,24.8,00.0,34.8,27.4,05.9,0000.0,0004.87,0002.28,0001.68
2022-01-29 01:33:00,,0832.1,5.01,0.00,25.7,24.8,00.0,34.8,27.4,05.8,0000.0,0004.79,0002.24,0001.67
2022-01-29 01:34:00,,0832.1,5.00,0.00,25.7,24.8,00.0,34.8,27.3,05.6,0000.0,0004.77,0002.21,0001.66
2022-01-29 01:35:00,,0832.1,4.99,0.00,25.6,24.8,00.0,34.8,27.3,05.3,0000.0,0004.69,0002.17,0001.63
2022-01-29 01:36:00,,0832.1,4.99,0.00,25.6,24.8,00.0,34.8,27.3,05.2,0000.0,0004.46,0002.05,0001.58
2022-01-29 01:37:00,,0832.1,5.00,0.00,25.6,24.8,00.0,34.7,27.3,05.1,0000.0,0004.27,0001.93,0001.50
2022-01-29 01:38:00,,0832.0,5.00,0.00,25.6,24.8,00.0,34.7,27.3,04.9,0000.0,0003.67,0001.83,0001.45
2022-01-29 01:39:00,,0832.0,5.01,0.00,25.6,24.7,00.0,34.7,27.3,04.7,0000.0,0003.00,0001.77,0001.39
2022-01-29 01:40:00,,0832.0,5.00,0.00,25.5,24.7,00.0,34.7,27.3,04.5,0000.0,0002.84,0001.69,0001.32
2022-01-29 01:41:00,,0832.0,5.00,0.00,25.5,24.7,00.0,34.7,27.2,04.5,0000.0,0002.59,0001.60,0001.25
2022-01-29 01:42:00,,0832.0,4.99,0.00,25.5,24.7,00.0,34.7,27.2,04.4,0000.0,0002.40,0001.50,0001.19
2022-01-29 01:43:00,,0832.0,5.00,0.00,25.5,24.7,00.0,34.6,27.2,04.3,0000.0,0002.27,0001.40,0001.10
2022-01-29 01:44:00,,0832.0,5.00,0.00,25.5,24.6,00.0,34.6,27.2,04.2,0000.0,0002.17,0001.32,0001.03
2022-01-29 01:45:00,,0832.0,5.01,0.00,25.4,24.6,00.0,34.6,27.1,04.1,0000.0,0002.08,0001.25,0000.97
2022-01-29 01:46:00,,0832.0,5.00,0.00,25.4,24.6,00.0,34.6,27.1,04.1,0000.0,0002.09,0001.17,0000.92
2022-01-29 01:47:00,,0832.0,4.99,0.00,25.4,24.6,00.0,34.6,27.1,03.8,0000.0,0002.96,0001.09,0000.86
2022-01-29 01:48:00,,0832.0,4.99,0.00,25.4,24.5,00.0,34.5,27.1,03.8,0000.0,0002.92,0001.05,0000.82
2022-01-29 01:49:00,,0832.0,5.00,0.00,25.4,24.5,00.0,34.5,27.1,04.0,0000.0,0002.88,0001.02,0000.78
2022-01-29 01:50:00,,0832.0,5.00,0.00,25.3,24.5,00.0,34.5,27.0,04.1,0000.0,0002.98,0001.00,0000.76
2022-01-29 01:51:00,,0832.0,5.01,0.00,25.3,24.5,00.0,34.5,27.0,03.9,0000.0,0002.85,0000.95,0000.73
2022-01-29 01:52:00,,0832.0,5.01,0.00,25.3,24.5,00.0,34.5,27.0,04.0,0000.0,0002.83,0000.93,0000.72
2022-01-29 01:53:00,,0831.9,5.00,0.00,25.3,24.4,00.0,34.4,27.0,04.1,0000.0,0002.80,0000.91,0000.70
2022-01-29 01:54:00,,0831.9,5.00,0.00,25.3,24.4,00.0,34.4,26.9,03.8,0000.0,0003.28,0000.85,0000.69
2022-01-29 01:55:00,,0831.8,5.00,0.00,25.2,24.4,00.0,34.4,26.9,03.8,0000.0,0003.97,0000.81,0000.67
2022-01-29 01:56:00,,0831.8,5.00,0.00,25.2,24.4,00.0,34.4,26.9,03.9,0000.0,0003.92,0000.79,0000.65
2022-01-29 01:57:00,,0831.7,4.99,0.00,25.2,24.4,00.0,34.4,26.9,03.8,0000.0,0003.67,0000.77,0000.64
2022-01-29 01:58:00,,0831.7,5.01,0.00,25.2,24.3,00.0,34.3,26.9,03.8,0000.0,0002.73,0000.77,0000.64
2022-01-29 01:59:00,,0831.7,5.00,0.00,25.1,24.3,00.0,34.3,26.8,03.8,0000.0,0002.72,0000.76,0000.64
